KD7RJ Weather Reports


time (UTC)temp
F
wind
direction
speed
knots
gust
knots
rain 1hr
in
rain 24hr
in
rain mn
in
humidity
%
barometer
mb
20260902194532 58 164 0.9 9.6 0.00 0.03 0.00 94 1005.1
20260902193031 58 167 2.6 7.8 0.00 0.03 0.00 94 1005.3
20260902191518 58 189 0.0 0.0 0.00 0.03 0.00 94 1005.5
20260902190012 58 181 0.0 4.3 0.00 0.03 0.00 93 1005.6
20260902184551 58 181 0.0 5.2 0.00 0.03 0.00 92 1005.6
20260902183100 59 176 2.6 7.0 0.00 0.03 0.00 92 1005.6
20260902181531 59 183 2.6 7.8 0.00 0.03 0.00 90 1006.0
20260902180032 59 223 0.9 10.4 0.00 0.03 0.00 90 1006.2
20260902174507 60 213 0.9 10.4 0.00 0.03 0.00 88 1006.1
20260902173017 61 217 0.0 0.0 0.00 0.03 0.00 86 1006.1
20260902171551 61 217 0.0 3.5 0.00 0.03 0.00 83 1005.9
20260902170055 62 213 0.9 6.1 0.00 0.03 0.00 79 1005.9
20260902164535 63 202 3.5 8.7 0.00 0.03 0.00 76 1005.7
20260902163035 63 196 1.7 6.1 0.00 0.03 0.00 75 1005.6
20260902161534 63 207 0.0 0.0 0.00 0.03 0.00 78 1005.6
20260902160049 63 207 0.0 2.6 0.00 0.03 0.00 78 1005.6
20260902154541 63 208 2.6 9.6 0.00 0.03 0.00 77 1005.8
20260902153038 63 166 0.9 7.0 0.00 0.03 0.00 74 1006.0
20260902151528 62 167 0.0 1.7 0.00 0.03 0.00 75 1006.1
20260902150028 62 167 0.0 0.0 0.00 0.03 0.00 77 1006.1
20260902144513 61 167 0.0 4.3 0.00 0.03 0.00 77 1006.3
20260902143007 61 167 0.0 3.5 0.00 0.03 0.00 78 1006.4
20260902141605 61 167 0.0 4.3 0.00 0.03 0.00 78 1006.6
20260902140048 61 167 2.6 7.0 0.00 0.03 0.00 79 1006.7
20260902134528 60 169 0.0 3.5 0.00 0.03 0.00 80 1006.9
20260902133032 60 169 0.0 4.3 0.00 0.03 0.00 80 1007.0
20260902131510 60 169 0.0 7.0 0.00 0.03 0.00 80 1007.3
20260902130005 60 169 0.9 6.1 0.00 0.03 0.00 80 1007.6
20260902124606 60 169 0.0 4.3 0.00 0.03 0.00 80 1007.8
20260902123132 60 186 0.9 4.3 0.00 0.03 0.00 81 1007.9
20260902121552 60 186 0.0 3.5 0.00 0.03 0.00 81 1008.2
20260902120050 60 186 0.0 4.3 0.00 0.03 0.00 81 1008.4
20260902114548 60 186 0.0 4.3 0.00 0.03 0.00 81 1008.5
20260902113045 60 186 0.0 3.5 0.00 0.03 0.00 81 1008.6
20260902111548 60 186 0.9 4.3 0.00 0.03 0.00 81 1008.8
20260902110053 60 186 0.0 6.1 0.00 0.03 0.00 81 1008.9
20260902104541 60 186 1.7 7.8 0.00 0.03 0.00 82 1008.9
20260902103023 60 187 0.0 5.2 0.00 0.03 0.00 82 1009.1
20260902101521 60 188 0.0 5.2 0.00 0.03 0.00 83 1009.0
20260902100004 60 190 0.0 5.2 0.00 0.03 0.00 84 1009.1
20260902094503 60 190 0.0 3.5 0.00 0.03 0.00 84 1009.1
20260902093044 60 190 0.0 6.1 0.00 0.03 0.00 84 1009.2
20260902091559 60 190 0.0 5.2 0.00 0.03 0.00 84 1009.5
20260902090033 60 190 1.7 5.2 0.00 0.03 0.00 84 1009.7
20260902084522 60 195 0.0 5.2 0.00 0.03 0.00 84 1009.9
20260902083004 61 196 0.0 4.3 0.00 0.03 0.00 82 1009.8
20260902081500 61 197 0.0 6.1 0.00 0.03 0.00 82 1009.8
20260902080046 62 188 0.0 5.2 0.00 0.03 0.00 80 1009.8
20260902074540 62 188 0.0 4.3 0.00 0.03 0.00 79 1009.9
20260902073021 62 190 0.0 6.1 0.00 0.03 0.00 79 1010.0
20260902071521 62 211 1.7 7.8 0.00 0.03 0.00 78 1010.2
20260902070006 62 182 0.0 5.2 0.00 0.03 0.00 78 1010.4
20260902064507 62 183 1.7 6.1 0.00 0.03 0.00 79 1010.4
20260902063049 62 183 0.9 4.3 0.00 0.03 0.00 79 1010.4
20260902061552 62 186 0.0 3.5 0.00 0.03 0.00 78 1010.2
20260902060024 62 187 1.7 7.0 0.00 0.03 0.00 78 1010.3
20260902054523 63 222 0.0 0.0 0.00 0.03 0.00 77 1010.5
20260902053007 63 222 0.0 0.9 0.00 0.03 0.00 76 1010.6
20260902051503 63 228 1.7 4.3 0.00 0.03 0.00 75 1010.6
20260902050045 63 235 0.0 3.5 0.00 0.03 0.00 75 1010.6
20260902044543 63 229 0.0 5.2 0.00 0.03 0.00 75 1010.7
20260902043024 63 244 0.9 3.5 0.00 0.03 0.00 74 1010.6
20260902041539 64 250 0.0 0.0 0.00 0.03 0.00 74 1010.5
20260902040007 64 250 0.0 1.7 0.00 0.03 0.00 74 1010.6
20260902034505 64 250 0.0 2.6 0.00 0.03 0.00 73 1010.5
20260902033045 64 250 0.0 4.3 0.00 0.03 0.00 74 1010.4
20260902031544 64 253 0.0 0.0 0.00 0.03 0.00 74 1010.3
20260902030030 65 253 0.0 0.0 0.00 0.03 0.00 75 1010.3
20260902024530 65 251 0.0 4.3 0.00 0.03 0.00 74 1010.3
20260902023028 65 247 0.0 6.1 0.00 0.03 0.00 74 1010.1
20260902021529 66 254 0.9 7.8 0.00 0.03 0.00 73 1010.2
20260902020043 66 263 0.0 5.2 0.00 0.03 0.00 73 1010.1
20260902014524 66 261 0.0 7.8 0.00 0.03 0.03 73 1010.0
20260902013028 66 279 0.9 4.3 0.00 0.03 0.03 74 1010.0
20260902011523 66 292 0.0 2.6 0.03 0.03 0.03 75 1010.0
20260902010011 66 321 0.0 3.5 0.03 0.03 0.03 76 1010.0
20260902004505 66 325 0.0 6.1 0.03 0.03 0.03 75 1010.0
20260902003047 66 274 0.9 8.7 0.03 0.03 0.03 72 1009.8
20260902001547 67 248 0.9 6.1 0.00 0.00 0.00 68 1009.7
20260902000031 68 208 0.9 5.2 0.00 0.00 0.00 68 1009.7
20260901234528 68 252 2.6 7.0 0.00 0.00 0.00 68 1009.9
20260901233010 68 240 3.5 8.7 0.00 0.00 0.00 68 1009.9
20260901231515 68 220 0.0 7.8 0.00 0.00 0.00 67 1010.0
20260901230057 68 221 0.9 7.8 0.00 0.00 0.00 67 1010.1
20260901224552 68 194 1.7 6.1 0.00 0.00 0.00 67 1010.1
20260901223100 68 186 0.9 7.0 0.00 0.00 0.00 67 1010.1
20260901221543 68 178 2.6 6.1 0.00 0.00 0.00 68 1010.1
20260901220047 68 198 1.7 6.1 0.00 0.00 0.00 68 1010.1
20260901214540 67 207 1.7 7.0 0.00 0.00 0.00 70 1010.0
20260901213038 67 220 3.5 6.1 0.00 0.00 0.00 69 1010.1
20260901211538 67 229 1.7 7.0 0.00 0.00 0.00 70 1010.1
20260901210043 67 211 0.0 7.8 0.00 0.00 0.00 71 1010.2
20260901204638 66 209 1.7 8.7 0.00 0.00 0.00 71 1010.3
20260901203034 66 194 0.9 7.8 0.00 0.00 0.00 71 1010.3
20260901201518 66 235 0.9 6.1 0.00 0.00 0.00 72 1010.3
20260901200105 66 236 0.9 6.1 0.00 0.00 0.00 72 1010.4